Regional Weather Roundup
Issued by NWS Midland/Odessa, TX

Skip options and go directly to product.
Home | Oldest Version | Next Version | Current Version | All | Text Only | Save Text | Print | Product List | Glossary On

Skip product version selection by date and time.   
045
ASUS44 KMAF 250902
RWRMAF
MIDLAND AREA WEATHER ROUNDUP
NATIONAL WEATHER SERVICE MIDLAND TX
400 AM CDT SAT OCT 25 2014

...IN SOUTHWEST TEXAS AND SOUTHEAST NEW MEXICO...

CITY           SKY/WX    TMP DP  RH WIND       PRES   REMARKS
ALPINE         CLEAR     59  52  78 SW7       30.30F
ANDREWS        FAIR      61  58  90 SW8       30.18S
ARTESIA        NOT AVBL
BIG SPRING     CLEAR     61  57  86 SE6       30.19S
CARLSBAD       CLEAR     56  52  86 N6        30.15S
DRYDEN           N/A     63  60  90 N8        30.14S
FORT STOCKTON  CLEAR     62  57  83 S9        30.16F
GUAD PASS      NOT AVBL
HOBBS          CLEAR     55  54  94 S6        30.20F
MARFA          CLEAR     48  46  93 N6        30.29F
MIDLAND AIRPK  CLEAR     64  58  82 S3        30.18S
MIDLAND INTL   CLEAR     62  55  77 S5        30.16F
ODESSA         CLEAR     64  58  80 S8        30.18S
PECOS          CLEAR     56  52  86 CALM      30.14S
PRESIDIO       FAIR      67  53  61 N7        30.16S
SEMINOLE       CLEAR     55  51  86 SW3       30.19F
SNYDER         CLEAR     59  55  85 SW5       30.16S
WINK           CLEAR     62  56  80 E8        30.14F
$$
...OTHER STATIONS IN TEXAS...

CITY           SKY/WX    TMP DP  RH WIND       PRES   REMARKS
ABILENE        CLEAR     65  55  70 SW6       30.13S
AMARILLO       CLEAR     56  47  71 SW9       30.15S
AUSTIN         CLEAR     58  57  97 CALM      30.13F
BROWNSVILLE    CLEAR     66  65  96 NW3       30.11S
CORPUS CHRISTI CLEAR     64  61  90 W3        30.12F
DALLAS FTW     CLEAR     66  58  75 S8        30.09S
DEL RIO        CLEAR     65  61  87 E7        30.12S
EL PASO        CLEAR     61  51  70 N3        30.20S
HOUSTON INT    CLEAR     58  57  97 CALM      30.13S
LUBBOCK        CLEAR     55  48  77 W7        30.16F
SAN ANGELO     CLEAR     60  56  86 CALM      30.15S
SAN ANTONIO    CLEAR     65  58  78 CALM      30.15F
WACO           CLEAR     64  58  80 S8        30.12S
WICHITA FALLS  NOT AVBL
$$
...OTHER LOCATIONS IN NEW MEXICO...

CITY           SKY/WX    TMP DP  RH WIND       PRES   REMARKS
ALAMAGORDO     NOT AVBL
ALBUQUERQUE    CLEAR     58  35  42 CALM      30.29S
CANNON AFB     CLEAR     61  49  64 W9        30.20S
CLOVIS         CLEAR     55  46  71 SW10      30.22S
HOLLOMAN AFB   PTCLDY    52  45  76 NW2       30.21S
ROSWELL        CLEAR     56  52  86 CALM      30.17S
RUIDOSO        CLEAR     50  36  57 SW5       30.38S
SANTA FE       CLEAR     47  22  37 N8        30.33S
TRUTH OR CONSE CLEAR     60  44  55 W3        30.25F
TUCUMCARI      CLEAR     60  49  66 W5        30.15S
$$

USA.gov is the U.S. government's official web portal to all federal, state and local government web resources and services.